Location: Bard
(39.9279°N, 78.6592°W)
Time: 08:52:34
(UTC+00:00)

ARIANE 6 FM1 Upper Stage - Pass Details

Date: 17 December 2025
Orbit: 522 x 610 km, 62.0° (Epoch: 14 January)

Event Time Altitude Azimuth Distance (km) Brightness Sun altitude
Exits shadow 09:45:22 19° 139° (SE) 1,333 5.0 -30.7°
Maximum altitude 09:46:27 21° 116° (ESE) 1,247 5.0 -30.5°
Drops below altitude 10° 09:49:28 10° 67° (ENE) 1,781 5.9 -30.0°
Sets 09:52:02 0° 51° (NE) 2,665 6.7 -29.5°
